Simultaneous Nadir Overpasses (SNOs) Predictions

Prediction of SNOs between NOAA-19 and NPP Satellite Orbit:

Table of predicted SNOs for the next 14.0 days since TLE Epoch: 10/28/2022
Index Date (NOAA-19) Time (NOAA-19) Lat,Lon (NOAA-19) SZA (NOAA-19 ) Date (NPP) Time (NPP) Lat,Lon (NPP) SZA (NPP ) Distance(km) Time Diff (sec)
1 11/03/2022 15:46:03 -75.75, 104.26 88.67 11/03/2022 15:47:09 -75.82, 107.40 88.79 86.13 66
2 11/03/2022 16:36:55 76.26, -86.64 91.74 11/03/2022 16:38:04 76.25, -86.76 91.72 3.26 69
3 11/03/2022 17:27:51 -76.26, 80.65 88.25 11/03/2022 17:28:48 -76.24, 80.60 88.29 3.48 57
4 11/03/2022 18:18:55 76.24,-112.20 91.75 11/03/2022 18:19:34 76.25,-112.15 91.75 1.69 39
5 11/03/2022 19:09:51 -76.25, 55.10 88.24 11/03/2022 19:10:18 -76.24, 55.21 88.26 2.94 27
6 11/03/2022 20:00:54 76.27,-137.58 91.79 11/03/2022 20:01:04 76.26,-137.55 91.78 1.49 10
7 11/03/2022 20:51:50 -76.28, 29.72 88.20 11/03/2022 20:51:49 -76.29, 29.65 88.18 2.36 1
8 11/03/2022 21:42:53 76.30,-162.97 91.84 11/03/2022 21:42:34 76.27,-162.95 91.81 3.78 19
9 11/03/2022 22:33:49 -76.31, 4.33 88.15 11/03/2022 22:33:19 -76.30, 4.25 88.15 2.30 30
10 11/03/2022 23:24:53 76.28, 171.48 91.85 11/03/2022 23:24:05 76.32, 171.50 91.89 3.69 48
11 11/04/2022 00:15:49 -76.29, -21.22 88.14 11/04/2022 00:14:49 -76.30, -21.14 88.12 2.42 60
12 11/04/2022 01:06:50 76.40, 146.43 91.96 11/04/2022 01:05:37 76.41, 145.77 92.02 17.45 73



Historial Predications of SNOs between NOAA-19 and NPP
